Waarnemingen

Advertentie
Mijn weer
Putbus, Duitsland (10093): temperatuur & dauwpunt: 13.06.2018 22:00:00 - 19.06.2018 22:00:00 (CEST)Putbus, Duitsland (10093): temperatuur 5cm & temperatuur -5cm: 13.06.2018 22:00:00 - 19.06.2018 22:00:00 (CEST)Putbus, Duitsland (10093): temperatuur -20cm & temperatuur -100cm: 13.06.2018 22:00:00 - 19.06.2018 22:00:00 (CEST)Putbus, Duitsland (10093): windsnelheid & windstoten: 13.06.2018 22:00:00 - 19.06.2018 22:00:00 (CEST)Putbus, Duitsland (10093): windrichting: 13.06.2018 22:00:00 - 19.06.2018 22:00:00 (CEST)Putbus, Duitsland (10093): luchtdruk: 13.06.2018 22:00:00 - 19.06.2018 22:00:00 (CEST)Putbus, Duitsland (10093): zicht: 13.06.2018 22:00:00 - 19.06.2018 22:00:00 (CEST)Putbus, Duitsland (10093): Zonneschijnduur: 13.06.2018 22:00:00 - 19.06.2018 22:00:00 (CEST)Putbus, Duitsland (10093): neerslag: 13.06.2018 22:00:00 - 19.06.2018 22:00:00 (CEST)
Datum & Tijd tt [°C] td [°C] tt 5cm [°C] tt -5cm [°C] tt -20cm [°C] tt -100cm [°C] ff [km/u] ff [kn] fx [km/u] fx [kn] dd ppp [hPa] vv [km] sd [min] rr [mm]
19.06.2018 22:00:00 16,0 10,3 14,8 21,7 23,6 16,9 16 9 36 19 W 1020,7 40 30 0,0
19.06.2018 21:00:00 17,4 10,9 16,6 24,3 24,0 16,9 22 12 44 24 W 1020,3 58 60 0,0
19.06.2018 20:00:00 18,4 11,1 19,0 26,7 24,1 16,9 27 15 43 23 WNW 1020,1 23 60 0,0
19.06.2018 19:00:00 19,5 12,6 21,0 28,5 23,8 16,9 26 14 45 24 WNW 1020,0 27 60 0,0
19.06.2018 18:00:00 20,7 13,2 23,0 29,3 23,4 16,9 29 16 46 25 WNW 1019,5 16 57 0,0
19.06.2018 17:00:00 20,9 13,2 23,6 28,7 23,0 16,9 29 16 48 26 WNW 1019,5 13 40 0,0
19.06.2018 16:00:00 20,6 14,2 23,0 27,6 22,6 16,9 29 15 49 26 W 1019,3 16 34 0,0
19.06.2018 15:00:00 20,6 13,9 23,3 26,7 22,3 16,9 30 16 50 27 W 1019,0 15 12 0,0
19.06.2018 14:00:00 20,3 13,6 21,8 26,6 21,8 16,9 22 12 45 24 W 1018,9 25 11 0,0
19.06.2018 13:00:00 20,6 13,3 24,9 27,3 21,1 16,9 29 15 45 24 W 1018,5 14 38 0,0
19.06.2018 12:00:00 20,5 13,8 24,7 24,7 20,6 16,9 25 13 42 23 W 1018,4 10 27 0,0
19.06.2018 11:00:00 18,4 14,0 19,9 22,3 20,3 16,9 22 12 36 19 W 1018,5 15 5 0,0
19.06.2018 10:00:00 18,5 14,4 20,5 22,0 20,0 16,9 19 10 35 19 W 1017,8 12 14 0,0
19.06.2018 09:00:00 17,6 14,3 18,8 19,6 19,9 16,9 16 9 32 17 WZW 1017,3 17 12 0,0
19.06.2018 08:00:00 17,1 13,9 18,5 18,7 20,0 16,9 16 9 33 18 WZW 1017,2 11 60 0,0
19.06.2018 07:00:00 16,1 14,5 16,2 17,9 20,2 16,8 17 9 29 16 W 1017,3 6 38 0,0
19.06.2018 06:00:00 15,7 14,7 15,3 17,7 20,6 16,8 15 8 27 15 WZW 1016,9 9 0 0,0
19.06.2018 05:00:00 15,1 14,5 14,6 17,5 21,0 16,8 13 7 24 13 WZW 1016,6 9 0 0,0
19.06.2018 04:00:00 15,3 14,6 14,4 18,4 21,4 16,8 11 6 21 11 WZW 1016,6 14 0 0,0
19.06.2018 03:00:00 15,5 15,0 15,1 19,4 21,8 16,8 9 5 34 19 WZW 1016,6 17 0 1,0
19.06.2018 02:00:00 16,7 15,2 16,3 20,4 22,1 16,8 19 10 26 14 W 1017,1 12 0 0,0
19.06.2018 01:00:00 17,1 14,2 16,7 20,9 22,5 16,8 5 3 14 7 WZW 1016,8 33 0 0,0
19.06.2018 00:00:00 18,0 14,1 17,5 21,3 22,9 16,8 7 4 13 7 Z 1017,0 37 0 0,0
18.06.2018 23:00:00 16,9 13,8 16,3 21,9 23,3 16,8 7 4 10 5 Z 1017,5 17 0 0,0
18.06.2018 22:00:00 18,0 14,2 17,6 23,4 23,6 16,8 4 2 9 5 Z 1017,4 20 0 0,0
18.06.2018 21:00:00 18,5 14,4 18,6 24,8 23,9 16,8 0 0 5 3 N 1017,3 29 0 0,0
18.06.2018 20:00:00 19,0 14,1 20,1 26,0 24,0 16,8 5 3 9 5 N 1017,4 33 0 0,0
18.06.2018 19:00:00 19,3 14,1 21,0 27,2 24,0 16,8 8 4 11 6 NO 1017,5 39 2 0,0
18.06.2018 18:00:00 20,1 11,3 21,3 28,1 23,9 16,8 8 4 16 9 WNW 1017,7 47 0 0,0
18.06.2018 17:00:00 20,8 11,1 23,1 29,4 23,6 16,8 11 6 19 10 WNW 1017,9 43 3 0,0
18.06.2018 16:00:00 21,1 11,7 25,1 28,9 23,2 16,8 10 5 18 10 WNW 1017,9 18 16 0,0
18.06.2018 15:00:00 19,2 11,6 20,5 29,3 22,6 16,8 9 5 26 14 Z 1018,3 38 24 0,0
18.06.2018 14:00:00 21,5 10,9 26,7 27,3 22,2 16,8 10 5 20 11 ZZW 1018,2 31 15 0,0
18.06.2018 13:00:00 18,9 10,1 20,3 25,7 21,9 16,8 9 5 19 10 WZW 1018,8 36 0 0,0
18.06.2018 12:00:00 19,0 9,2 20,7 26,9 21,3 16,8 14 8 28 15 ZW 1018,8 37 14 0,0
18.06.2018 11:00:00 19,8 10,0 24,0 26,6 20,6 16,8 13 7 24 13 WZW 1018,6 39 49 0,0
18.06.2018 10:00:00 19,2 8,4 22,8 23,8 20,2 16,8 12 6 21 11 WZW 1018,6 70 46 0,0
18.06.2018 09:00:00 17,6 10,5 19,4 21,6 19,9 16,8 14 7 23 12 W 1018,8 41 30 0,0
18.06.2018 08:00:00 16,5 11,9 17,8 19,2 19,9 16,8 11 6 17 9 WZW 1018,6 39 1 0,0
18.06.2018 07:00:00 15,1 12,0 15,4 17,9 20,1 16,8 10 5 15 8 WZW 1018,5 34 0 0,0
18.06.2018 06:00:00 14,2 11,8 14,0 17,0 20,4 16,8 7 4 12 6 WZW 1018,1 27 19 0,0
18.06.2018 05:00:00 13,4 11,5 11,7 17,5 20,8 16,8 8 5 12 7 WZW 1017,9 24 0 0,0
18.06.2018 04:00:00 13,6 11,7 12,8 17,9 21,2 16,8 10 5 11 6 WZW 1018,0 23 0 0,0
18.06.2018 03:00:00 14,0 11,6 12,3 18,4 21,6 16,8 8 4 10 5 WZW 1018,0 33 0 0,0
18.06.2018 02:00:00 14,5 11,5 13,4 19,0 22,0 16,8 7 4 14 7 WZW 1017,8 39 0 0,0
18.06.2018 01:00:00 14,7 11,0 14,2 19,5 22,5 16,8 10 6 16 9 W 1017,3 45 0 0,0
18.06.2018 00:00:00 14,9 10,6 14,2 20,1 23,0 16,7 10 5 16 8 WZW 1017,1 54 0 0,0
17.06.2018 23:00:00 14,7 10,7 13,7 20,9 23,6 16,7 13 7 16 9 W 1016,8 46 0 0,0
17.06.2018 22:00:00 15,8 10,6 14,8 22,4 24,1 16,7 12 6 19 10 W 1016,7 55 0 0,0
17.06.2018 21:00:00 17,1 11,2 16,8 24,2 24,6 16,7 9 5 29 16 WNW 1016,4 44 0 0,0
17.06.2018 20:00:00 18,3 12,5 18,5 26,4 24,8 16,7 21 11 29 16 WNW 1015,9 31 10 0,0
17.06.2018 19:00:00 19,6 11,2 20,3 28,5 24,8 16,7 15 8 34 18 WNW 1015,1 37 35 0,0
17.06.2018 18:00:00 21,0 10,2 23,1 30,8 24,5 16,7 21 11 35 19 NW 1014,8 26 55 0,0
17.06.2018 17:00:00 21,9 11,7 24,9 31,6 23,9 16,7 20 11 39 21 WNW 1014,6 15 53 0,0
17.06.2018 16:00:00 21,7 12,4 25,9 30,6 23,3 16,7 19 10 38 20 WNW 1014,3 20 48 0,0
17.06.2018 15:00:00 21,4 13,8 26,0 28,1 22,7 16,7 14 8 29 16 WNW 1014,3 19 15 0,0
17.06.2018 14:00:00 20,5 12,7 23,4 29,1 22,1 16,7 17 9 29 16 WNW 1014,0 28 42 0,0
17.06.2018 13:00:00 18,7 13,6 20,7 25,8 21,6 16,7 16 9 32 17 WNW 1014,2 15 6 0,0
17.06.2018 12:00:00 19,0 14,4 20,2 25,3 21,2 16,7 21 12 29 16 W 1014,0 18 14 0,0
17.06.2018 11:00:00 20,0 15,1 23,5 23,2 20,9 16,7 9 5 22 12 WZW 1013,7 23 24 0,0
17.06.2018 10:00:00 17,8 14,2 18,7 21,7 20,8 16,6 9 5 24 13 WNW 1013,6 32 0 0,0
17.06.2018 09:00:00 17,5 14,2 18,4 21,3 20,8 16,6 12 6 32 17 NW 1013,0 26 1 0,0
17.06.2018 08:00:00 18,0 14,3 18,7 20,5 20,8 16,6 18 10 35 19 NW 1012,6 14 4 0,0
17.06.2018 07:00:00 19,3 14,8 19,8 19,4 20,9 16,6 9 5 16 9 Z 1012,1 18 19 0,0
17.06.2018 06:00:00 18,0 13,8 17,3 18,6 21,3 16,6 8 4 14 8 Z 1012,2 18 19 0,0
17.06.2018 05:00:00 15,2 13,7 12,4 18,5 21,7 16,6 6 3 16 9 ZZW 1012,5 14 0 0,0
17.06.2018 04:00:00 17,1 14,7 14,3 19,3 22,1 16,6 8 5 16 9 ZZW 1012,7 20 0 0,0
17.06.2018 03:00:00 18,0 14,4 16,8 20,0 22,5 16,6 9 5 16 9 Z 1013,0 23 0 0,0
17.06.2018 02:00:00 17,7 14,3 16,8 20,3 23,0 16,6 9 5 21 12 ZO 1013,4 26 0 0,0
17.06.2018 01:00:00 18,2 12,8 16,6 21,2 23,5 16,6 6 4 19 11 ZO 1013,7 38 0 0,0
17.06.2018 00:00:00 17,8 12,8 17,3 21,5 24,1 16,6 9 5 23 12 ZO 1014,2 35 0 0,0
16.06.2018 23:00:00 17,5 12,1 16,5 22,6 24,7 16,6 10 5 22 12 OZO 1014,3 36 0 0,0
16.06.2018 22:00:00 17,3 13,2 16,6 24,2 25,3 16,6 9 5 24 13 OZO 1014,6 36 0 0,0
16.06.2018 21:00:00 18,3 12,0 18,2 26,5 25,7 16,6 11 6 29 16 OZO 1014,5 41 0 0,0
16.06.2018 20:00:00 19,2 11,1 20,3 28,8 25,9 16,6 9 5 18 10 O 1014,8 39 1 0,0
16.06.2018 19:00:00 20,1 11,3 21,9 30,9 25,9 16,6 10 5 26 14 O 1015,0 48 27 0,0
16.06.2018 18:00:00 20,3 10,9 23,0 32,5 25,7 16,6 10 5 25 14 O 1015,3 36 44 0,0
16.06.2018 17:00:00 21,7 11,4 25,2 33,1 25,3 16,6 11 6 28 15 O 1015,6 33 30 0,0
16.06.2018 16:00:00 21,5 10,9 25,4 33,8 24,7 16,5 10 6 29 15 O 1016,0 32 56 0,0
16.06.2018 15:00:00 20,9 9,6 25,2 33,2 24,0 16,5 18 10 29 16 O 1016,4 22 37 0,0
16.06.2018 14:00:00 21,6 9,3 26,0 33,5 23,1 16,5 15 8 28 15 O 1016,9 27 60 0,0
16.06.2018 13:00:00 20,7 10,1 25,1 31,9 22,1 16,5 13 7 27 15 OZO 1017,7 41 60 0,0
16.06.2018 12:00:00 20,1 10,5 23,9 29,6 21,1 16,5 14 7 24 13 OZO 1017,9 19 60 0,0
16.06.2018 11:00:00 19,9 11,1 24,0 27,5 20,3 16,5 12 6 25 13 OZO 1018,0 19 60 0,0
16.06.2018 10:00:00 19,8 9,9 23,7 24,2 19,6 16,5 11 6 20 11 OZO 1018,1 30 59 0,0
16.06.2018 09:00:00 19,1 10,7 21,7 21,6 19,2 16,5 8 4 16 8 OZO 1018,0 57 30 0,0
16.06.2018 08:00:00 18,0 13,6 19,9 18,6 19,1 16,5 6 3 10 6 O 1018,0 24 60 0,0
16.06.2018 07:00:00 15,1 12,8 16,1 16,1 19,4 16,5 4 2 7 4 ONO 1018,0 20 55 0,0
16.06.2018 06:00:00 10,8 10,2 11,1 15,1 19,8 16,5 4 2 6 3 NNO 1018,1 8 15 0,0
16.06.2018 05:00:00 9,1 8,4 6,5 15,2 20,4 16,5 3 2 5 3 NO 1018,3 8 0 0,0
16.06.2018 04:00:00 10,6 10,0 7,2 15,9 21,0 16,5 2 1 8 4 Z 1018,2 12 0 0,0
16.06.2018 03:00:00 11,1 10,4 9,5 16,6 21,6 16,5 5 3 7 4 WZW 1018,3 16 0 0,0
16.06.2018 02:00:00 10,5 9,6 8,0 17,4 22,3 16,5 5 3 9 5 Z 1018,1 16 0 0,0
16.06.2018 01:00:00 11,4 10,3 8,6 18,5 23,0 16,4 5 3 7 4 ZZW 1018,1 13 0 0,0
16.06.2018 00:00:00 12,3 10,8 10,2 19,9 23,8 16,5 5 3 7 4 Z 1018,1 26 0 0,0
15.06.2018 23:00:00 12,4 10,6 10,5 21,6 24,6 16,5 5 3 7 4 ZZW 1018,3 33 0 0,0
15.06.2018 22:00:00 13,9 11,2 11,7 24,2 25,3 16,5 4 2 8 5 Z 1018,2 29 3 0,0
15.06.2018 21:00:00 17,3 10,6 16,3 27,4 25,7 16,5 4 2 10 6 Z 1017,8 49 50 0,0
15.06.2018 20:00:00 18,5 8,5 20,5 30,2 25,9 16,5 6 3 17 9 N 1017,7 42 60 0,0
15.06.2018 19:00:00 19,3 8,4 22,2 31,9 25,8 16,5 11 6 24 13 NNW 1017,4 35 60 0,0
15.06.2018 18:00:00 19,4 6,3 22,7 33,4 25,4 16,5 16 9 29 15 NW 1017,5 34 60 0,0
15.06.2018 17:00:00 19,9 7,9 23,8 34,2 24,7 16,5 18 10 31 17 NW 1017,5 31 60 0,0
15.06.2018 16:00:00 20,4 9,3 25,6 34,0 23,9 16,5 13 7 27 15 NW 1017,3 21 60 0,0
15.06.2018 15:00:00 20,1 10,0 26,1 32,6 23,0 16,5 16 9 35 19 NNW 1017,2 25 53 0,0
15.06.2018 14:00:00 19,1 9,6 22,9 31,5 22,0 16,5 16 9 34 18 NW 1017,2 36 50 0,0
15.06.2018 13:00:00 19,7 10,0 23,4 29,7 21,1 16,5 13 7 27 15 WNW 1017,1 24 50 0,0
15.06.2018 12:00:00 19,0 10,2 23,3 27,5 20,3 16,5 15 8 25 14 W 1016,9 21 52 0,0
15.06.2018 11:00:00 18,1 10,4 22,3 24,4 19,7 16,5 18 10 28 15 WNW 1016,8 34 34 0,0
15.06.2018 10:00:00 16,9 12,0 18,6 22,1 19,4 16,5 14 8 24 13 WNW 1016,4 19 16 0,0
15.06.2018 09:00:00 18,0 13,0 20,9 20,4 19,2 16,5 14 7 25 13 WNW 1016,0 19 16 0,0
15.06.2018 08:00:00 16,2 13,5 16,9 18,8 19,3 16,5 12 7 19 11 W 1015,4 8 3 0,0
15.06.2018 07:00:00 15,3 13,7 15,6 18,1 19,4 16,5 10 5 16 8 WZW 1014,9 5 0 0,0
15.06.2018 06:00:00 14,9 13,5 14,8 17,7 19,6 16,5 9 5 21 12 WZW 1014,7 6 0 0,0
15.06.2018 05:00:00 15,0 12,8 14,8 17,8 19,9 16,5 16 9 24 13 W 1014,5 6 0 0,0
15.06.2018 04:00:00 15,1 12,6 14,8 18,1 20,2 16,5 9 5 14 8 WZW 1014,3 7 0 0,0
15.06.2018 03:00:00 15,3 12,7 15,0 18,4 20,6 16,5 8 4 14 7 WZW 1014,1 8 0 0,0
15.06.2018 02:00:00 15,0 12,8 14,7 18,7 21,0 16,5 10 5 14 8 W 1013,9 9 0 0,0
15.06.2018 01:00:00 15,1 12,6 14,6 19,2 21,5 16,5 10 6 24 13 W 1013,9 11 0 0,0
15.06.2018 00:00:00 17,6 10,5 16,9 20,4 21,9 16,5 10 5 18 10 ZW 1013,7 42 0 0,0
14.06.2018 23:00:00 17,9 10,2 17,2 21,1 22,4 16,6 10 6 18 10 Z 1013,4 47 0 0,0
14.06.2018 22:00:00 17,5 10,3 16,7 22,4 22,9 16,6 9 5 17 9 Z 1013,5 41 0 0,0
14.06.2018 21:00:00 18,1 10,4 17,8 24,5 23,2 16,6 8 4 17 9 ZZW 1013,2 42 23 0,0
14.06.2018 20:00:00 19,3 9,6 20,1 26,8 23,3 16,6 11 6 21 11 ZZW 1012,9 48 34 0,0
14.06.2018 19:00:00 19,6 9,7 20,9 28,6 23,1 16,6 9 5 27 14 Z 1012,7 50 40 0,0
14.06.2018 18:00:00 18,6 10,4 20,0 30,2 22,7 16,6 10 5 26 14 ZZO 1012,9 52 40 0,0
14.06.2018 17:00:00 20,8 9,9 24,7 31,1 22,0 16,6 11 6 26 14 Z 1013,1 38 45 0,0
14.06.2018 16:00:00 19,6 10,0 22,5 29,8 21,4 16,7 11 6 26 14 Z 1013,5 43 23 0,0
14.06.2018 15:00:00 18,3 8,7 20,5 29,7 20,5 16,7 12 7 29 16 ZW 1014,1 52 20 0,0
14.06.2018 14:00:00 18,9 9,2 23,0 29,6 19,5 16,7 11 6 23 13 ZW 1014,3 37 38 0,0
14.06.2018 13:00:00 17,9 8,4 21,5 26,6 18,6 16,7 12 6 24 13 WZW 1014,6 50 31 0,0
14.06.2018 12:00:00 17,0 6,9 20,7 24,0 17,9 16,7 13 7 24 13 W 1014,9 45 17 0,0
14.06.2018 11:00:00 15,9 8,0 18,2 21,2 17,4 16,7 11 6 22 12 WZW 1015,0 53 0 0,0
14.06.2018 10:00:00 15,7 8,1 17,9 19,2 17,0 16,7 9 5 18 10 ZW 1015,1 58 3 0,0
14.06.2018 09:00:00 14,3 9,4 15,6 16,8 16,8 16,7 12 6 18 10 WZW 1014,9 47 0 0,0
14.06.2018 08:00:00 13,4 9,8 14,2 15,5 16,7 16,7 9 5 16 9 WZW 1014,8 38 0 0,0
14.06.2018 07:00:00 12,6 9,7 13,0 14,4 16,8 16,7 9 5 15 8 WZW 1014,6 42 0 0,0
14.06.2018 06:00:00 11,5 9,0 11,5 13,4 17,1 16,8 10 5 16 8 WZW 1014,5 37 28 0,0
14.06.2018 05:00:00 10,0 8,5 8,0 12,7 17,5 16,8 10 6 18 10 WZW 1014,2 33 0 0,0
14.06.2018 04:00:00 10,8 8,6 8,9 13,3 17,9 16,8 11 6 18 10 W 1013,9 39 0 0,0
14.06.2018 03:00:00 10,9 8,7 9,0 13,9 18,3 16,8 12 6 17 9 W 1013,6 44 0 0,0
14.06.2018 02:00:00 12,4 9,2 10,8 14,7 18,7 16,8 14 7 28 15 W 1013,0 40 0 0,0
14.06.2018 01:00:00 13,6 9,6 12,5 15,3 19,1 16,8 21 11 34 19 W 1013,0 39 0 0,0
14.06.2018 00:00:00 13,9 9,7 12,7 16,0 19,6 16,8 21 12 34 18 WNW 1013,1 43 0 0,0
13.06.2018 23:00:00 13,3 10,3 12,4 16,9 20,1 16,8 20 11 30 16 W 1012,8 34 0 0,0
13.06.2018 22:00:00 14,0 10,0 13,0 18,3 20,4 16,9 20 11 39 21 W 1012,2 44 0 0,0

tt = temperatuur
td = dauwpunt
tt 5cm = temperatuur 5cm
tt -5cm = temperatuur -5cm
tt -20cm = temperatuur -20cm
tt -100cm = temperatuur -100cm
ff = windsnelheid
fx = windstoten
dd = windrichting
ppp = luchtdruk
vv = zicht
sd = Zonneschijnduur
rr = neerslag

Weerstations in de omgeving